When you browse on this site, cookies collect data to enhance your experience and personalize the content and advertising you see.
Visit our Privacy Policy to learn more. By continuing to use the site, you agree to this use of cookies and data.
  • în România
  • Lista ţărilor
  • Pe 7 zile
  • Temperatura apei
  • Hartă satelitară
  • Meteo pe hartă
  • Widget-uri
  • user-avatar
    Intrare

    Meteo pe oră la Banbridge

    Astăzi, 16 Ianuarie, Miercuri

    Timp Temperatura Precipitaţii Vânt Presiune Umiditate
    00:00 +7°C° 0 mm 6 m/s 744 mmHg 88%
    01:00 +7°C° 0.2 mm 6 m/s 743 mmHg 88%
    02:00 +7°C° 0.2 mm 6 m/s 743 mmHg 88%
    03:00 +6°C° 0.2 mm 7 m/s 742 mmHg 88%
    04:00 +5°C° 0.6 mm 6 m/s 742 mmHg 88%
    05:00 +5°C° 0.6 mm 6 m/s 741 mmHg 88%
    06:00 +5°C° 0.6 mm 5 m/s 741 mmHg 89%
    07:00 +3°C° 0 mm 5 m/s 741 mmHg 88%
    08:00 +3°C° 0 mm 5 m/s 741 mmHg 87%
    09:00 +2°C° 0 mm 5 m/s 741 mmHg 87%
    10:00 +2°C° 0 mm 5 m/s 741 mmHg 84%
    11:00 +3°C° 0 mm 5 m/s 741 mmHg 81%
    12:00 +3°C° 0 mm 5 m/s 741 mmHg 78%
    13:00 +3°C° 0.1 mm 5 m/s 741 mmHg 79%
    14:00 +4°C° 0.1 mm 4 m/s 741 mmHg 80%
    15:00 +4°C° 0.1 mm 3 m/s 740 mmHg 81%
    16:00 +4°C° 0.2 mm 3 m/s 741 mmHg 83%
    17:00 +3°C° 0.2 mm 4 m/s 741 mmHg 85%
    18:00 +3°C° 0.2 mm 4 m/s 741 mmHg 86%
    19:00 +1°C° 0 mm 4 m/s 742 mmHg 87%
    20:00 +2°C° 0 mm 3 m/s 743 mmHg 87%
    21:00 +2°C° 0 mm 3 m/s 744 mmHg 88%
    22:00 +1°C° 0 mm 4 m/s 745 mmHg 87%
    23:00 +1°C° 0 mm 4 m/s 746 mmHg 86%

    Mâine, 17 Ianuarie, Joi

    Timp Temperatura Precipitaţii Vânt Presiune Umiditate
    00:00 +1°C° 0 mm 5 m/s 747 mmHg 85%
    01:00 0°C° 0 mm 5 m/s 748 mmHg 83%
    02:00 0°C° 0 mm 5 m/s 749 mmHg 82%
    03:00 0°C° 0 mm 5 m/s 750 mmHg 80%
    04:00 -1°C° 0 mm 4 m/s 751 mmHg 80%
    05:00 0°C° 0 mm 3 m/s 752 mmHg 79%
    06:00 -1°C° 0 mm 3 m/s 753 mmHg 79%
    07:00 -1°C° 0 mm 2 m/s 754 mmHg 81%
    08:00 -1°C° 0 mm 2 m/s 754 mmHg 82%
    09:00 -1°C° 0 mm 2 m/s 755 mmHg 84%
    10:00 +2°C° 0 mm 1 m/s 755 mmHg 80%
    11:00 +3°C° 0 mm 1 m/s 755 mmHg 76%
    12:00 +4°C° 0 mm 1 m/s 756 mmHg 72%
    13:00 +4°C° 0 mm 1 m/s 756 mmHg 72%
    14:00 +4°C° 0 mm 1 m/s 755 mmHg 73%
    15:00 +4°C° 0 mm 1 m/s 755 mmHg 73%
    16:00 +4°C° 0 mm 1 m/s 755 mmHg 74%
    17:00 +2°C° 0 mm 2 m/s 755 mmHg 76%
    18:00 +1°C° 0 mm 2 m/s 754 mmHg 78%
    19:00 0°C° 0 mm 3 m/s 754 mmHg 77%
    20:00 +1°C° 0 mm 3 m/s 754 mmHg 77%
    21:00 0°C° 0 mm 4 m/s 753 mmHg 76%
    22:00 +1°C° 0.1 mm 4 m/s 752 mmHg 77%
    23:00 +1°C° 0.1 mm 5 m/s 751 mmHg 79%

    Poimâine, 18 Ianuarie, Vineri

    Timp Temperatura Precipitaţii Vânt Presiune Umiditate
    00:00 +1°C° 0.1 mm 5 m/s 750 mmHg 80%
    01:00 +2°C° 1 mm 6 m/s 749 mmHg 83%
    02:00 +2°C° 1 mm 6 m/s 749 mmHg 86%
    03:00 +2°C° 1 mm 7 m/s 748 mmHg 90%
    04:00 +3°C° 1 mm 7 m/s 747 mmHg 91%
    05:00 +3°C° 1 mm 6 m/s 746 mmHg 92%
    06:00 +3°C° 1 mm 6 m/s 746 mmHg 93%
    07:00 +3°C° 0.3 mm 5 m/s 745 mmHg 94%
    08:00 +4°C° 0.3 mm 4 m/s 745 mmHg 95%
    09:00 +3°C° 0.3 mm 3 m/s 745 mmHg 96%
    10:00 +4°C° 0.1 mm 3 m/s 745 mmHg 95%
    11:00 +6°C° 0.1 mm 2 m/s 745 mmHg 94%
    12:00 +6°C° 0.1 mm 2 m/s 745 mmHg 93%
    13:00 +7°C° 0 mm 1 m/s 744 mmHg 93%
    14:00 +7°C° 0 mm 1 m/s 744 mmHg 93%
    15:00 +7°C° 0 mm 1 m/s 744 mmHg 93%
    16:00 +6°C° 0 mm 1 m/s 744 mmHg 94%
    17:00 +5°C° 0 mm 1 m/s 744 mmHg 95%
    18:00 +4°C° 0 mm 1 m/s 744 mmHg 95%
    19:00 +4°C° 0 mm 1 m/s 744 mmHg 95%
    20:00 +4°C° 0 mm 1 m/s 744 mmHg 95%
    21:00 +2°C° 0 mm 0 m/s 744 mmHg 94%
    22:00 +3°C° 0 mm 1 m/s 744 mmHg 94%
    23:00 +4°C° 0 mm 1 m/s 744 mmHg 94%

    19 Ianuarie, Sâmbătă

    Timp Temperatura Precipitaţii Vânt Presiune Umiditate
    00:00 +4°C° 0 mm 1 m/s 745 mmHg 94%
    01:00 +3°C° 0 mm 2 m/s 745 mmHg 94%
    02:00 +3°C° 0 mm 2 m/s 745 mmHg 94%
    03:00 +3°C° 0 mm 2 m/s 745 mmHg 95%
    04:00 +3°C° 0 mm 2 m/s 745 mmHg 95%
    05:00 +3°C° 0 mm 3 m/s 745 mmHg 95%
    06:00 +3°C° 0 mm 3 m/s 746 mmHg 95%
    07:00 +3°C° 0 mm 3 m/s 746 mmHg 95%
    08:00 +4°C° 0 mm 2 m/s 747 mmHg 95%
    09:00 +4°C° 0 mm 2 m/s 747 mmHg 95%
    10:00 +5°C° 0 mm 2 m/s 748 mmHg 94%
    11:00 +5°C° 0 mm 2 m/s 748 mmHg 93%
    12:00 +5°C° 0 mm 2 m/s 749 mmHg 91%
    13:00 +5°C° 0 mm 2 m/s 749 mmHg 91%
    14:00 +4°C° 0 mm 3 m/s 749 mmHg 90%
    15:00 +3°C° 0 mm 3 m/s 749 mmHg 90%
    16:00 +4°C° 0 mm 2 m/s 750 mmHg 91%
    17:00 +4°C° 0 mm 2 m/s 750 mmHg 92%
    18:00 +4°C° 0 mm 2 m/s 751 mmHg 93%
    19:00 +4°C° 0 mm 2 m/s 751 mmHg 94%
    20:00 +4°C° 0 mm 2 m/s 752 mmHg 94%
    21:00 +4°C° 0 mm 2 m/s 753 mmHg 95%
    22:00 +4°C° 0.1 mm 2 m/s 753 mmHg 94%
    23:00 +5°C° 0.1 mm 2 m/s 754 mmHg 94%

    20 Ianuarie, Duminică

    Timp Temperatura Precipitaţii Vânt Presiune Umiditate
    00:00 +6°C° 0.1 mm 1 m/s 754 mmHg 93%
    01:00 +6°C° 0.1 mm 1 m/s 754 mmHg 94%
    02:00 +6°C° 0.1 mm 1 m/s 755 mmHg 94%
    03:00 +5°C° 0.1 mm 2 m/s 755 mmHg 94%
    04:00 +5°C° 0.1 mm 2 m/s 755 mmHg 94%
    05:00 +5°C° 0.1 mm 2 m/s 756 mmHg 94%
    06:00 +5°C° 0.1 mm 2 m/s 756 mmHg 95%
    07:00 +5°C° 0.1 mm 2 m/s 757 mmHg 95%
    08:00 +5°C° 0.1 mm 2 m/s 757 mmHg 95%
    09:00 +5°C° 0.1 mm 2 m/s 758 mmHg 95%
    10:00 +6°C° 0.2 mm 1 m/s 758 mmHg 94%
    11:00 +7°C° 0.2 mm 1 m/s 759 mmHg 92%
    12:00 +7°C° 0.2 mm 1 m/s 759 mmHg 91%
    13:00 +7°C° 0.3 mm 1 m/s 759 mmHg 91%
    14:00 +7°C° 0.3 mm 1 m/s 760 mmHg 91%
    15:00 +7°C° 0.3 mm 1 m/s 760 mmHg 91%
    16:00 +7°C° 0.1 mm 1 m/s 760 mmHg 91%
    17:00 +6°C° 0.1 mm 1 m/s 761 mmHg 92%
    18:00 +5°C° 0.1 mm 1 m/s 761 mmHg 93%
    19:00 +5°C° 0 mm 1 m/s 761 mmHg 94%
    20:00 +4°C° 0 mm 1 m/s 762 mmHg 94%
    21:00 +4°C° 0 mm 1 m/s 762 mmHg 95%
    22:00 +3°C° 0 mm 1 m/s 762 mmHg 95%
    23:00 +3°C° 0 mm 1 m/s 762 mmHg 96%

    21 Ianuarie, Luni

    Timp Temperatura Precipitaţii Vânt Presiune Umiditate
    00:00 +3°C° 0 mm 1 m/s 762 mmHg 96%
    01:00 +2°C° 0 mm 1 m/s 762 mmHg 96%
    02:00 +2°C° 0 mm 1 m/s 761 mmHg 96%
    03:00 +2°C° 0 mm 1 m/s 761 mmHg 96%
    04:00 +2°C° 0 mm 1 m/s 760 mmHg 96%
    05:00 +1°C° 0 mm 2 m/s 760 mmHg 97%
    06:00 +1°C° 0 mm 2 m/s 759 mmHg 97%
    07:00 0°C° 0 mm 3 m/s 759 mmHg 96%
    08:00 -1°C° 0 mm 4 m/s 758 mmHg 96%
    09:00 0°C° 0 mm 4 m/s 757 mmHg 95%
    10:00 0°C° 0 mm 5 m/s 756 mmHg 93%
    11:00 +1°C° 0 mm 6 m/s 755 mmHg 91%
    12:00 0°C° 0 mm 7 m/s 754 mmHg 88%
    13:00 +1°C° 0.3 mm 8 m/s 752 mmHg 88%
    14:00 +1°C° 0.3 mm 8 m/s 751 mmHg 88%
    15:00 +2°C° 0.3 mm 9 m/s 749 mmHg 88%
    16:00 +1°C° 0.7 mm 8 m/s 749 mmHg 87%
    17:00 +2°C° 0.7 mm 7 m/s 748 mmHg 86%
    18:00 +1°C° 0.7 mm 5 m/s 748 mmHg 85%
    19:00 +1°C° 0 mm 6 m/s 747 mmHg 85%
    20:00 -1°C° 0 mm 6 m/s 747 mmHg 85%
    21:00 -1°C° 0 mm 6 m/s 747 mmHg 85%
    22:00 -1°C° 0.1 mm 6 m/s 746 mmHg 86%
    23:00 -1°C° 0.1 mm 6 m/s 746 mmHg 86%
    Arată mai mult